Location: ???????
(52.3000°N, 54.4667°E)
Time: 21:58:22
(UTC+00:00)

Cosmos 1328 - Pass Details

Date: 24 January 2020
Orbit: 535 x 549 km, 82.5° (Epoch: 17 February)

Event Time Altitude Azimuth Distance (km) Brightness Sun altitude
Rises 14:34:56 0° 175° (S) 2,711 7.5 -15.2°
Reaches altitude 10° 14:37:08 10° 171° (S) 1,822 6.5 -15.6°
Maximum altitude 14:41:01 51° 95° (E) 702 3.9 -16.1°
Enters shadow 14:43:58 17° 24° (NNE) 1,458 5.6 -16.6°
